Regional Weather Roundup
Issued by NWS

Home | Current Version | Previous Version | Text Only | Print | Product List | Glossary On
Versions: 1 2 3 4 5 6 7 8 9 10 11 12 13 14 15 16 17 18 19 20 21 22 23 24 25 26 27 28 29 30 31 32 33 34 35 36 37 38 39 40 41 42 43 44 45 46 47 48 49 50
000
ASUS43 KLSX 192210
RWRMO

WEATHER SUMMARY FOR MISSOURI
NATIONAL WEATHER SERVICE SPRINGFIELD MO
400 PM CST THU JAN 19 2017

NOTE: "FAIR" INDICATES FEW OR NO CLOUDS BELOW 12,000 FEET WITH NO
       SIGNIFICANT WEATHER AND/OR OBSTRUCTIONS TO VISIBILITY.
       CURRENT SKY AND/OR WEATHER CONDITIONS ARE NOT AVAILABLE FOR
       CHILLICOTHE AND FARMINGTON.

MOZ001>031-035>038-043-044-053-054-192300-
...NORTHERN AND WESTERN MISSOURI...

CITY           SKY/WX    TMP DP  RH WIND       PRES   REMARKS
KANSAS CTY INT CLOUDY    48  44  86 S3        29.66F
KANSAS C DTWN  CLOUDY    50  46  86 S5        29.66F
LEE`S SUMMIT   CLOUDY    49  47  93 SE3       29.66F
ST JOSEPH      CLOUDY    48  46  93 SE9       29.67S
CHILLICOTHE      N/A     46  45  96 E3        29.69F
KIRKSVILLE     FOG       44  44 100 NE3       29.71S VSB 1/4

$$
MOZ066>068-077>081-088>096-101>105-192300-
...SOUTHWEST MISSOURI...

CITY           SKY/WX    TMP DP  RH WIND       PRES   REMARKS
SPRINGFIELD    CLOUDY    53  50  89 S6        29.65F
JOPLIN         CLOUDY    54  48  80 S9        29.65F
BRANSON        PTSUNNY   52  48  87 SE7       29.67F

$$
MOZ032>034-039>042-045>050-055>058-069>072-192300-
...CENTRAL MISSOURI...

CITY           SKY/WX    TMP DP  RH WIND       PRES   REMARKS
COLUMBIA       CLOUDY    48  47  96 CALM      29.69S FOG
JEFFERSON CITY CLOUDY    49  47  93 CALM      29.70S
ROLLA          FOG       50  50 100 MISG      29.66F VSB 3/4
SEDALIA        CLOUDY    52  47  83 E3        29.68F
WHITEMAN AFB   CLOUDY    50  50 100 SE3       29.65F
WARRENSBURG    CLOUDY    50  45  81 CALM      29.67S
OSAGE BEACH    CLOUDY    51  48  89 CALM      29.68F

$$
MOZ051-052-059>065-192300-
...EAST CENTRAL MISSOURI...

CITY           SKY/WX    TMP DP  RH WIND       PRES   REMARKS
ST LOUIS INTL  FOG       47  45  93 E9        29.72S VSB 1/2
SPIRIT OF STL  CLOUDY    47  47 100 E6        29.70F FOG
ST CHARLES     CLOUDY    46  46 100 E8        29.71F FOG

$$
MOZ072>076-082>087-097>100-106>115-192300-
...SOUTH CENTRAL AND SOUTHEAST MISSOURI...

CITY           SKY/WX    TMP DP  RH WIND       PRES   REMARKS
CAPE GIRARDEAU FOG       51  50  96 NE3       29.70F VSB 3/4
FARMINGTON     LGT RAIN  49  49 100 SE5       29.69  VSB 1/4
POPLAR BLUFF   FOG       50  50 100 CALM      29.70F VSB<1/4
WEST PLAINS    FOG       50  50 100 CALM      29.68F VSB 1/4

$$




USA.gov is the U.S. government's official web portal to all federal, state and local government web resources and services.